Location: *
(51.4660°N, 0.3360°W)
Time: 12:43:15
(UTC+00:00)

ASTEX 1 - Visible Passes

Search period start: 06 December 2019 00:00
Search period end: 16 December 2019 00:00
Orbit: 721 x 742 km, 92.7° (Epoch: 05 December)

Date Brightness Start Highest point End Pass type
(mag) Time Alt. Az. Time Alt. Az. Time Alt. Az.
06 Dec 5.0 16:57:35 10° N 17:02:05 35° WNW 17:06:33 10° SW visible
07 Dec 6.1 17:51:20 10° NNW 17:53:48 14° WNW 17:56:17 10° W visible
08 Dec 5.3 17:03:26 10° NNW 17:07:42 29° WNW 17:11:55 10° SW visible
09 Dec 6.3 17:57:47 10° NW 17:59:19 11° WNW 18:00:52 10° WNW visible
10 Dec 5.6 17:09:20 10° NNW 17:13:17 24° WNW 17:17:12 10° WSW visible
12 Dec 5.8 17:15:18 10° NNW 17:18:51 20° WNW 17:22:23 10° WSW visible
13 Dec 4.6 16:27:55 10° N 16:32:36 43° WNW 16:37:13 10° SW visible
14 Dec 6.0 17:21:20 10° NNW 17:24:25 17° WNW 17:27:28 10° WSW visible
15 Dec 5.0 16:33:44 10° N 16:38:13 35° WNW 16:42:39 10° SW visible
